A/2020 H9

Japanese version
Home page
Updated on August 15, 2020

---------------------------------------------------------------------

* Profile

Discovery Date April 28, 2020
Magnitude 21.85 mag
Discoverer Pan-STARRS 1 telescope (Haleakala)

* Orbital Elements

Epoch 2019 Dec. 23.0 TT = JDT 2458840.5
T 2019 Dec. 21.11343 TT                                 Rudenko
q   2.5778292            (2000.0)            P               Q
z  +0.0028070      Peri.  312.81521     -0.27204990     -0.88970921
 +/-0.0000337      Node   213.11868     -0.56285283     -0.16188981
e   0.9927641      Incl.  137.85611     -0.78050339     +0.42685970
H   18.0
From 48 observations 2020 Apr. 22-July 22, mean residual 0".2.

* Magnitudes Graph

        H = 17.5  G = 0.15

---------------------------------------------------------------------

The orbital elements are published on M.P.E.C. 2020-P19.
The magnitudes graphs are made with Comet for Windows.

---------------------------------------------------------------------

Copyright(C) Seiichi Yoshida (comet@aerith.net). All rights reserved.